Kizahashi Hama_60 min,,,,,,,,
TIMESTAMP,Wind_Speed,Vector Wind_direction,Air_Temp,Humidity,Solar radiation_Avg,PAR_Avg,UV__Avg,Pressure
"(Local time, GMT+3hr)",(m/s),(degreeN),(��C),(%),(W/m^2),(��mol/m^2/s),(W/m^2),(hPa)
,,,,,,,,
2014/12/1 0:00,8.2 ,55 ,-0.7 ,41 ,2 ,2 ,0.4 ,981 
2014/12/1 1:00,9.3 ,53 ,-0.9 ,45 ,4 ,4 ,0.4 ,981 
2014/12/1 2:00,9.6 ,66 ,-0.9 ,42 ,5 ,4 ,0.4 ,979 
2014/12/1 3:00,9.5 ,53 ,-1.2 ,45 ,8 ,9 ,0.7 ,978 
2014/12/1 4:00,9.6 ,45 ,-1.7 ,51 ,13 ,15 ,1.2 ,975 
2014/12/1 5:00,16.0 ,76 ,-1.5 ,47 ,18 ,21 ,1.8 ,973 
2014/12/1 6:00,18.2 ,78 ,-2.1 ,56 ,29 ,35 ,3.0 ,971 
2014/12/1 7:00,20.0 ,81 ,-1.7 ,52 ,56 ,63 ,5.4 ,969 
2014/12/1 8:00,20.8 ,81 ,-1.6 ,53 ,93 ,101 ,8.2 ,969 
2014/12/1 9:00,21.2 ,81 ,-1.2 ,49 ,125 ,135 ,10.6 ,968 
2014/12/1 10:00,19.3 ,81 ,-1.3 ,57 ,203 ,205 ,15.6 ,968 
2014/12/1 11:00,19.6 ,81 ,-1.0 ,57 ,227 ,226 ,17.4 ,966 
2014/12/1 12:00,17.7 ,75 ,-0.7 ,59 ,220 ,237 ,18.5 ,966 
2014/12/1 13:00,16.7 ,73 ,-0.5 ,56 ,226 ,241 ,18.2 ,966 
2014/12/1 14:00,15.3 ,74 ,-0.3 ,56 ,195 ,207 ,15.4 ,966 
2014/12/1 15:00,14.0 ,75 ,-0.2 ,53 ,151 ,160 ,12.0 ,967 
2014/12/1 16:00,13.7 ,78 ,-0.2 ,50 ,107 ,116 ,8.7 ,967 
2014/12/1 17:00,12.1 ,79 ,0.0 ,46 ,89 ,94 ,7.0 ,968 
2014/12/1 18:00,10.9 ,79 ,-0.3 ,48 ,83 ,85 ,6.2 ,968 
2014/12/1 19:00,9.7 ,74 ,-0.4 ,47 ,71 ,68 ,5.0 ,968 
2014/12/1 20:00,9.6 ,76 ,-0.6 ,49 ,61 ,56 ,4.0 ,968 
2014/12/1 21:00,9.9 ,79 ,-0.8 ,46 ,29 ,28 ,2.1 ,968 
2014/12/1 22:00,10.6 ,80 ,-0.9 ,46 ,15 ,14 ,1.1 ,968 
2014/12/1 23:00,10.6 ,74 ,-1.1 ,44 ,10 ,9 ,0.8 ,968 
2014/12/2 0:00,12.9 ,79 ,-0.9 ,42 ,6 ,5 ,0.5 ,968 
2014/12/2 1:00,12.0 ,78 ,-1.0 ,40 ,3 ,3 ,0.4 ,969 
2014/12/2 2:00,12.4 ,82 ,-1.3 ,42 ,6 ,5 ,0.6 ,969 
2014/12/2 3:00,10.3 ,73 ,-0.7 ,35 ,15 ,12 ,1.1 ,969 
2014/12/2 4:00,13.2 ,78 ,-0.9 ,39 ,29 ,25 ,2.1 ,969 
2014/12/2 5:00,14.1 ,81 ,-0.7 ,36 ,58 ,50 ,3.9 ,969 
2014/12/2 6:00,14.0 ,80 ,-0.3 ,36 ,106 ,87 ,6.6 ,969 
2014/12/2 7:00,13.8 ,79 ,-0.3 ,37 ,156 ,131 ,9.6 ,970 
2014/12/2 8:00,13.8 ,77 ,0.1 ,36 ,213 ,176 ,13.1 ,970 
2014/12/2 9:00,13.2 ,79 ,0.4 ,39 ,246 ,213 ,15.5 ,971 
2014/12/2 10:00,12.6 ,82 ,0.5 ,36 ,310 ,266 ,19.0 ,971 
2014/12/2 11:00,12.0 ,77 ,1.3 ,35 ,418 ,340 ,23.5 ,972 
2014/12/2 12:00,11.9 ,77 ,1.8 ,34 ,490 ,387 ,26.7 ,973 
2014/12/2 13:00,10.6 ,75 ,1.9 ,36 ,457 ,372 ,26.2 ,973 
2014/12/2 14:00,9.6 ,77 ,2.0 ,33 ,423 ,346 ,24.6 ,974 
2014/12/2 15:00,8.2 ,71 ,1.9 ,35 ,356 ,303 ,21.3 ,974 
2014/12/2 16:00,5.7 ,54 ,1.7 ,38 ,311 ,263 ,18.5 ,975 
2014/12/2 17:00,3.2 ,17 ,1.6 ,36 ,293 ,240 ,16.8 ,976 
2014/12/2 18:00,5.2 ,56 ,1.4 ,37 ,227 ,185 ,13.2 ,977 
2014/12/2 19:00,3.8 ,34 ,0.3 ,54 ,159 ,132 ,9.3 ,978 
2014/12/2 20:00,1.3 ,291 ,1.7 ,37 ,157 ,122 ,7.6 ,978 
2014/12/2 21:00,2.2 ,251 ,-0.3 ,56 ,122 ,114 ,5.5 ,979 
2014/12/2 22:00,2.3 ,233 ,-0.4 ,49 ,44 ,50 ,2.8 ,979 
2014/12/2 23:00,1.3 ,50 ,-1.3 ,47 ,15 ,15 ,1.6 ,980 
2014/12/3 0:00,2.3 ,82 ,-3.0 ,47 ,13 ,10 ,1.0 ,981 
2014/12/3 1:00,1.3 ,87 ,-2.4 ,47 ,12 ,10 ,0.9 ,981 
2014/12/3 2:00,1.4 ,72 ,-2.1 ,38 ,19 ,14 ,1.3 ,982 
2014/12/3 3:00,3.8 ,73 ,-2.5 ,33 ,28 ,23 ,2.2 ,982 
2014/12/3 4:00,5.6 ,60 ,-3.5 ,41 ,47 ,37 ,3.9 ,982 
2014/12/3 5:00,5.1 ,54 ,-1.6 ,29 ,78 ,58 ,6.6 ,982 
2014/12/3 6:00,7.7 ,84 ,-0.4 ,28 ,300 ,143 ,10.5 ,982 
2014/12/3 7:00,7.7 ,80 ,0.1 ,28 ,534 ,276 ,16.9 ,983 
2014/12/3 8:00,5.4 ,68 ,0.6 ,27 ,529 ,293 ,20.0 ,983 
2014/12/3 9:00,5.8 ,66 ,0.9 ,28 ,694 ,377 ,24.7 ,984 
2014/12/3 10:00,5.4 ,63 ,1.5 ,30 ,763 ,429 ,27.9 ,984 
2014/12/3 11:00,4.4 ,54 ,1.0 ,43 ,816 ,475 ,30.1 ,984 
2014/12/3 12:00,3.3 ,312 ,0.3 ,48 ,833 ,508 ,34.1 ,984 
2014/12/3 13:00,3.8 ,236 ,0.4 ,43 ,902 ,564 ,40.8 ,985 
2014/12/3 14:00,4.2 ,243 ,0.4 ,47 ,846 ,548 ,39.0 ,985 
2014/12/3 15:00,3.8 ,258 ,0.8 ,39 ,781 ,527 ,35.4 ,985 
2014/12/3 16:00,3.6 ,258 ,0.8 ,39 ,699 ,491 ,31.8 ,986 
2014/12/3 17:00,3.5 ,250 ,1.0 ,34 ,588 ,431 ,26.9 ,986 
2014/12/3 18:00,3.2 ,257 ,1.1 ,32 ,460 ,356 ,20.8 ,986 
2014/12/3 19:00,2.6 ,239 ,0.5 ,34 ,203 ,202 ,14.5 ,986 
2014/12/3 20:00,2.7 ,234 ,0.6 ,40 ,223 ,197 ,9.6 ,986 
2014/12/3 21:00,3.1 ,243 ,0.2 ,34 ,145 ,134 ,5.9 ,985 
2014/12/3 22:00,3.2 ,224 ,-0.3 ,40 ,54 ,56 ,3.0 ,986 
2014/12/3 23:00,2.3 ,229 ,-2.0 ,66 ,22 ,19 ,1.7 ,986 
2014/12/4 0:00,1.9 ,30 ,-1.7 ,48 ,20 ,14 ,1.1 ,986 
2014/12/4 1:00,3.5 ,60 ,-2.3 ,45 ,17 ,13 ,1.0 ,986 
2014/12/4 2:00,3.9 ,64 ,-2.9 ,42 ,14 ,14 ,1.3 ,985 
2014/12/4 3:00,4.1 ,63 ,-3.3 ,40 ,16 ,18 ,2.3 ,985 
2014/12/4 4:00,3.5 ,50 ,-4.9 ,56 ,20 ,24 ,4.0 ,984 
2014/12/4 5:00,2.1 ,41 ,-3.4 ,43 ,30 ,33 ,6.3 ,984 
2014/12/4 6:00,3.0 ,59 ,-2.7 ,43 ,336 ,144 ,10.7 ,984 
2014/12/4 7:00,2.2 ,265 ,-3.6 ,65 ,462 ,205 ,14.8 ,983 
2014/12/4 8:00,3.0 ,234 ,-3.4 ,64 ,588 ,272 ,19.0 ,982 
2014/12/4 9:00,2.9 ,235 ,-2.5 ,51 ,701 ,342 ,23.0 ,982 
2014/12/4 10:00,3.2 ,251 ,-1.5 ,57 ,794 ,409 ,26.6 ,981 
2014/12/4 11:00,3.7 ,252 ,-1.6 ,50 ,863 ,470 ,29.7 ,981 
2014/12/4 12:00,4.0 ,249 ,-1.5 ,50 ,901 ,516 ,34.8 ,980 
2014/12/4 13:00,4.4 ,254 ,-1.4 ,52 ,900 ,542 ,40.7 ,980 
2014/12/4 14:00,4.2 ,258 ,-1.1 ,50 ,865 ,546 ,39.5 ,979 
2014/12/4 15:00,3.9 ,263 ,-0.6 ,47 ,796 ,527 ,35.7 ,979 
2014/12/4 16:00,3.9 ,262 ,-0.2 ,46 ,702 ,487 ,31.8 ,978 
2014/12/4 17:00,3.8 ,262 ,-0.5 ,49 ,589 ,428 ,26.9 ,978 
2014/12/4 18:00,3.9 ,260 ,-0.8 ,50 ,466 ,356 ,21.0 ,978 
2014/12/4 19:00,3.2 ,247 ,-0.9 ,45 ,208 ,210 ,14.9 ,977 
2014/12/4 20:00,2.8 ,240 ,-0.6 ,43 ,221 ,199 ,9.7 ,977 
2014/12/4 21:00,3.1 ,256 ,-1.0 ,57 ,132 ,131 ,6.0 ,976 
2014/12/4 22:00,3.1 ,245 ,-2.6 ,66 ,48 ,62 ,3.2 ,976 
2014/12/4 23:00,1.8 ,251 ,-3.0 ,68 ,13 ,16 ,1.8 ,976 
2014/12/5 0:00,3.8 ,64 ,-2.7 ,34 ,10 ,12 ,1.1 ,976 
2014/12/5 1:00,5.5 ,65 ,-3.3 ,31 ,9 ,10 ,1.1 ,976 
2014/12/5 2:00,5.5 ,65 ,-3.3 ,31 ,12 ,14 ,1.4 ,975 
2014/12/5 3:00,4.7 ,61 ,-3.8 ,33 ,16 ,19 ,2.4 ,975 
2014/12/5 4:00,4.9 ,63 ,-3.2 ,28 ,23 ,26 ,4.1 ,974 
2014/12/5 5:00,3.6 ,44 ,-2.9 ,34 ,35 ,36 ,6.4 ,973 
2014/12/5 6:00,4.5 ,52 ,-2.4 ,30 ,333 ,145 ,10.8 ,972 
2014/12/5 7:00,6.1 ,56 ,-2.0 ,31 ,473 ,213 ,15.0 ,971 
2014/12/5 8:00,5.9 ,47 ,-1.7 ,34 ,503 ,256 ,18.4 ,971 
2014/12/5 9:00,5.3 ,40 ,-0.1 ,29 ,672 ,359 ,24.1 ,970 
2014/12/5 10:00,5.2 ,38 ,1.0 ,28 ,675 ,365 ,25.1 ,968 
2014/12/5 11:00,6.3 ,59 ,1.3 ,28 ,524 ,328 ,24.6 ,967 
2014/12/5 12:00,6.4 ,62 ,1.7 ,28 ,418 ,323 ,24.2 ,965 
2014/12/5 13:00,7.8 ,59 ,1.6 ,30 ,248 ,233 ,17.4 ,964 
2014/12/5 14:00,5.5 ,41 ,0.0 ,48 ,185 ,178 ,12.6 ,964 
2014/12/5 15:00,6.9 ,62 ,0.8 ,43 ,118 ,121 ,8.6 ,963 
2014/12/5 16:00,11.8 ,89 ,0.8 ,44 ,90 ,96 ,6.8 ,961 
2014/12/5 17:00,13.3 ,91 ,1.3 ,42 ,69 ,72 ,5.0 ,959 
2014/12/5 18:00,14.3 ,80 ,1.6 ,38 ,86 ,85 ,5.7 ,958 
2014/12/5 19:00,14.8 ,80 ,1.2 ,45 ,110 ,100 ,6.4 ,958 
2014/12/5 20:00,13.8 ,77 ,0.8 ,48 ,51 ,48 ,3.1 ,959 
2014/12/5 21:00,13.3 ,77 ,0.7 ,53 ,25 ,23 ,2.1 ,959 
2014/12/5 22:00,11.9 ,74 ,0.8 ,50 ,11 ,10 ,0.9 ,959 
2014/12/5 23:00,11.9 ,71 ,0.6 ,47 ,13 ,11 ,0.9 ,961 
2014/12/6 0:00,12.8 ,75 ,0.3 ,46 ,7 ,7 ,0.6 ,962 
2014/12/6 1:00,12.7 ,75 ,0.4 ,46 ,4 ,4 ,0.5 ,962 
2014/12/6 2:00,14.3 ,80 ,0.2 ,42 ,6 ,6 ,0.5 ,962 
2014/12/6 3:00,15.4 ,81 ,0.0 ,44 ,17 ,16 ,1.2 ,962 
2014/12/6 4:00,16.4 ,82 ,-0.2 ,47 ,35 ,32 ,2.3 ,962 
2014/12/6 5:00,16.4 ,81 ,0.3 ,44 ,92 ,87 ,4.0 ,962 
2014/12/6 6:00,15.2 ,78 ,1.0 ,41 ,447 ,264 ,9.8 ,962 
2014/12/6 7:00,15.5 ,78 ,1.2 ,41 ,617 ,385 ,17.2 ,962 
2014/12/6 8:00,15.5 ,77 ,0.6 ,43 ,202 ,192 ,13.2 ,962 
2014/12/6 9:00,14.9 ,74 ,1.2 ,41 ,203 ,201 ,14.4 ,963 
2014/12/6 10:00,13.5 ,71 ,1.1 ,41 ,201 ,206 ,15.3 ,964 
2014/12/6 11:00,12.0 ,69 ,1.4 ,44 ,159 ,174 ,13.4 ,964 
2014/12/6 12:00,12.6 ,68 ,1.6 ,42 ,159 ,175 ,13.5 ,964 
2014/12/6 13:00,13.2 ,76 ,1.9 ,40 ,201 ,207 ,15.5 ,964 
2014/12/6 14:00,14.3 ,79 ,2.1 ,40 ,214 ,215 ,15.8 ,964 
2014/12/6 15:00,14.6 ,79 ,2.3 ,37 ,166 ,172 ,12.7 ,964 
2014/12/6 16:00,16.0 ,81 ,2.1 ,39 ,146 ,148 ,10.9 ,964 
2014/12/6 17:00,15.0 ,80 ,2.0 ,36 ,113 ,116 ,8.5 ,964 
2014/12/6 18:00,14.8 ,80 ,2.0 ,38 ,96 ,96 ,6.9 ,964 
2014/12/6 19:00,14.1 ,79 ,1.9 ,35 ,79 ,79 ,5.6 ,964 
2014/12/6 20:00,14.4 ,75 ,2.0 ,35 ,63 ,63 ,4.2 ,963 
2014/12/6 21:00,13.6 ,78 ,1.6 ,35 ,42 ,42 ,2.7 ,964 
2014/12/6 22:00,11.9 ,71 ,1.1 ,36 ,21 ,20 ,1.3 ,966 
2014/12/6 23:00,5.5 ,47 ,0.8 ,37 ,7 ,7 ,0.6 ,966 
2014/12/7 0:00,4.3 ,42 ,0.0 ,43 ,3 ,4 ,0.4 ,966 
2014/12/7 1:00,5.7 ,51 ,0.0 ,40 ,4 ,4 ,0.4 ,967 
2014/12/7 2:00,3.6 ,56 ,0.2 ,36 ,6 ,6 ,0.5 ,967 
2014/12/7 3:00,7.5 ,66 ,0.0 ,35 ,13 ,13 ,1.1 ,967 
2014/12/7 4:00,9.5 ,74 ,0.1 ,35 ,23 ,22 ,1.8 ,967 
2014/12/7 5:00,9.2 ,69 ,-0.3 ,40 ,32 ,32 ,2.6 ,967 
2014/12/7 6:00,10.3 ,76 ,0.0 ,37 ,36 ,37 ,3.0 ,967 
2014/12/7 7:00,11.7 ,81 ,-0.1 ,34 ,54 ,56 ,4.4 ,967 
2014/12/7 8:00,11.5 ,80 ,0.3 ,37 ,89 ,89 ,6.9 ,967 
2014/12/7 9:00,10.5 ,79 ,0.5 ,36 ,161 ,149 ,11.3 ,968 
2014/12/7 10:00,9.5 ,80 ,0.8 ,36 ,208 ,185 ,14.1 ,968 
2014/12/7 11:00,7.7 ,68 ,1.3 ,37 ,288 ,247 ,17.9 ,969 
2014/12/7 12:00,7.0 ,65 ,1.8 ,35 ,328 ,280 ,19.6 ,969 
2014/12/7 13:00,6.3 ,72 ,2.5 ,32 ,316 ,279 ,19.5 ,969 
2014/12/7 14:00,4.4 ,70 ,3.0 ,31 ,314 ,279 ,19.4 ,970 
2014/12/7 15:00,2.3 ,54 ,2.3 ,34 ,301 ,264 ,17.7 ,970 
2014/12/7 16:00,3.0 ,163 ,0.9 ,55 ,253 ,222 ,15.0 ,970 
2014/12/7 17:00,4.1 ,227 ,1.1 ,55 ,283 ,230 ,15.0 ,970 
2014/12/7 18:00,3.3 ,270 ,1.3 ,55 ,297 ,234 ,15.1 ,971 
2014/12/7 19:00,2.4 ,354 ,1.2 ,50 ,198 ,162 ,12.3 ,971 
2014/12/7 20:00,2.4 ,282 ,0.8 ,64 ,193 ,159 ,8.9 ,971 
2014/12/7 21:00,2.9 ,235 ,-0.4 ,71 ,78 ,63 ,4.9 ,972 
2014/12/7 22:00,2.1 ,237 ,0.1 ,57 ,48 ,35 ,2.7 ,973 
2014/12/7 23:00,1.6 ,245 ,-1.1 ,75 ,38 ,26 ,1.8 ,973 
2014/12/8 0:00,0.8 ,42 ,-1.4 ,66 ,25 ,17 ,1.3 ,974 
2014/12/8 1:00,2.6 ,63 ,-0.8 ,46 ,18 ,13 ,1.0 ,974 
2014/12/8 2:00,1.8 ,64 ,-0.9 ,50 ,21 ,16 ,1.2 ,975 
2014/12/8 3:00,1.4 ,54 ,-1.0 ,52 ,32 ,24 ,1.8 ,975 
2014/12/8 4:00,2.4 ,47 ,-2.2 ,74 ,52 ,40 ,3.2 ,976 
2014/12/8 5:00,2.1 ,49 ,-1.5 ,44 ,82 ,65 ,4.8 ,976 
2014/12/8 6:00,2.2 ,52 ,-1.4 ,47 ,99 ,84 ,6.0 ,976 
2014/12/8 7:00,1.4 ,23 ,-1.8 ,63 ,172 ,138 ,9.8 ,977 
2014/12/8 8:00,1.2 ,358 ,-1.6 ,59 ,271 ,208 ,14.5 ,977 
2014/12/8 9:00,2.0 ,23 ,-1.2 ,52 ,377 ,275 ,19.4 ,977 
2014/12/8 10:00,1.4 ,333 ,-0.1 ,53 ,491 ,339 ,24.0 ,977 
2014/12/8 11:00,2.7 ,254 ,-0.3 ,67 ,817 ,474 ,29.1 ,978 
2014/12/8 12:00,3.6 ,234 ,-0.7 ,68 ,603 ,390 ,29.3 ,978 
2014/12/8 13:00,2.7 ,241 ,0.0 ,56 ,740 ,479 ,35.7 ,978 
2014/12/8 14:00,3.1 ,257 ,1.1 ,52 ,890 ,578 ,39.7 ,978 
2014/12/8 15:00,3.4 ,300 ,1.1 ,39 ,787 ,542 ,35.0 ,979 
2014/12/8 16:00,2.8 ,309 ,-0.3 ,48 ,706 ,499 ,31.8 ,979 
2014/12/8 17:00,2.4 ,315 ,-0.7 ,52 ,593 ,439 ,27.2 ,979 
2014/12/8 18:00,2.4 ,324 ,-0.5 ,63 ,476 ,369 ,21.5 ,980 
2014/12/8 19:00,2.5 ,317 ,-1.3 ,73 ,222 ,222 ,15.5 ,980 
2014/12/8 20:00,2.2 ,333 ,-1.6 ,71 ,241 ,214 ,10.2 ,980 
2014/12/8 21:00,2.0 ,332 ,-1.5 ,76 ,141 ,143 ,6.5 ,980 
2014/12/8 22:00,2.0 ,342 ,-2.5 ,79 ,73 ,74 ,3.6 ,980 
2014/12/8 23:00,2.6 ,20 ,-1.8 ,76 ,29 ,21 ,1.5 ,981 
2014/12/9 0:00,2.7 ,31 ,-2.2 ,78 ,20 ,15 ,1.2 ,981 
2014/12/9 1:00,3.1 ,36 ,-3.2 ,82 ,18 ,15 ,1.3 ,981 
2014/12/9 2:00,4.1 ,46 ,-3.3 ,82 ,19 ,17 ,1.7 ,981 
2014/12/9 3:00,4.3 ,66 ,-4.0 ,83 ,20 ,22 ,2.8 ,981 
2014/12/9 4:00,2.5 ,35 ,-4.8 ,86 ,74 ,52 ,4.7 ,981 
2014/12/9 5:00,2.6 ,339 ,-5.1 ,86 ,52 ,43 ,7.1 ,981 
2014/12/9 6:00,2.2 ,7 ,-5.2 ,82 ,378 ,173 ,12.0 ,982 
2014/12/9 7:00,2.6 ,341 ,-6.2 ,80 ,359 ,205 ,14.5 ,982 
2014/12/9 8:00,3.5 ,5 ,-6.1 ,83 ,523 ,264 ,20.3 ,982 
2014/12/9 9:00,4.7 ,62 ,-5.9 ,86 ,472 ,256 ,22.0 ,982 
2014/12/9 10:00,4.1 ,48 ,-5.2 ,88 ,436 ,279 ,22.4 ,983 
2014/12/9 11:00,3.2 ,330 ,-4.7 ,83 ,374 ,264 ,19.9 ,983 
2014/12/9 12:00,3.3 ,326 ,-4.7 ,82 ,586 ,383 ,28.3 ,983 
2014/12/9 13:00,3.0 ,326 ,-4.1 ,74 ,973 ,585 ,42.9 ,984 
2014/12/9 14:00,3.1 ,334 ,-3.2 ,75 ,906 ,575 ,41.0 ,984 
2014/12/9 15:00,2.8 ,333 ,-3.1 ,75 ,828 ,557 ,34.8 ,984 
2014/12/9 16:00,2.3 ,335 ,-2.1 ,76 ,821 ,565 ,33.8 ,984 
2014/12/9 17:00,2.9 ,42 ,-1.2 ,68 ,664 ,475 ,27.5 ,984 
2014/12/9 18:00,2.7 ,13 ,-2.2 ,73 ,601 ,439 ,22.9 ,984 
2014/12/9 19:00,1.9 ,331 ,-2.5 ,74 ,246 ,233 ,15.6 ,984 
2014/12/9 20:00,1.3 ,342 ,-2.8 ,73 ,233 ,209 ,10.3 ,984 
2014/12/9 21:00,1.2 ,334 ,-1.7 ,65 ,130 ,139 ,6.5 ,984 
2014/12/9 22:00,0.4 ,338 ,-3.2 ,71 ,68 ,72 ,3.6 ,984 
2014/12/9 23:00,1.8 ,250 ,-3.3 ,78 ,15 ,19 ,2.2 ,984 
2014/12/10 0:00,1.8 ,183 ,-3.2 ,76 ,12 ,14 ,1.4 ,983 
2014/12/10 1:00,1.1 ,189 ,-3.9 ,72 ,13 ,14 ,1.3 ,983 
2014/12/10 2:00,1.1 ,12 ,-3.8 ,54 ,20 ,19 ,1.7 ,982 
2014/12/10 3:00,2.6 ,60 ,-3.8 ,49 ,34 ,29 ,2.7 ,982 
2014/12/10 4:00,3.6 ,67 ,-3.8 ,49 ,61 ,47 ,4.6 ,981 
2014/12/10 5:00,4.0 ,64 ,-3.3 ,42 ,133 ,89 ,7.2 ,980 
2014/12/10 6:00,3.7 ,66 ,-2.6 ,41 ,290 ,159 ,11.0 ,979 
2014/12/10 7:00,2.7 ,70 ,-1.9 ,50 ,381 ,208 ,14.5 ,978 
2014/12/10 8:00,2.2 ,339 ,-3.0 ,64 ,539 ,276 ,18.9 ,977 
2014/12/10 9:00,3.2 ,235 ,-2.7 ,60 ,649 ,354 ,23.7 ,976 
2014/12/10 10:00,3.8 ,239 ,-1.7 ,59 ,649 ,390 ,26.4 ,976 
2014/12/10 11:00,3.7 ,247 ,-0.5 ,49 ,799 ,479 ,30.4 ,975 
2014/12/10 12:00,3.9 ,260 ,-0.4 ,47 ,825 ,501 ,33.1 ,974 
2014/12/10 13:00,4.5 ,252 ,0.0 ,50 ,897 ,571 ,40.8 ,972 
2014/12/10 14:00,4.6 ,243 ,0.6 ,55 ,719 ,489 ,35.1 ,971 
2014/12/10 15:00,3.6 ,233 ,1.8 ,43 ,607 ,452 ,30.9 ,969 
2014/12/10 16:00,3.0 ,249 ,2.8 ,36 ,540 ,409 ,27.8 ,968 
2014/12/10 17:00,3.7 ,28 ,3.7 ,30 ,496 ,380 ,24.7 ,967 
2014/12/10 18:00,5.2 ,49 ,3.8 ,34 ,454 ,350 ,21.2 ,967 
2014/12/10 19:00,4.5 ,44 ,3.3 ,33 ,226 ,216 ,15.2 ,966 
2014/12/10 20:00,4.4 ,38 ,1.7 ,36 ,183 ,157 ,9.5 ,966 
2014/12/10 21:00,4.9 ,54 ,2.0 ,30 ,95 ,77 ,5.5 ,967 
2014/12/10 22:00,5.5 ,72 ,1.7 ,24 ,52 ,37 ,3.2 ,967 
2014/12/10 23:00,5.0 ,60 ,1.1 ,27 ,31 ,23 ,1.9 ,967 
2014/12/11 0:00,3.3 ,55 ,0.3 ,30 ,26 ,18 ,1.3 ,968 
2014/12/11 1:00,5.0 ,68 ,-0.5 ,27 ,18 ,14 ,1.2 ,969 
2014/12/11 2:00,4.6 ,57 ,-1.5 ,31 ,16 ,16 ,1.6 ,969 
2014/12/11 3:00,5.5 ,35 ,-0.7 ,29 ,24 ,23 ,2.6 ,969 
2014/12/11 4:00,4.0 ,40 ,-1.1 ,33 ,32 ,31 ,4.4 ,970 
2014/12/11 5:00,4.5 ,45 ,-1.1 ,37 ,45 ,42 ,6.6 ,970 
2014/12/11 6:00,4.3 ,39 ,-0.1 ,35 ,251 ,130 ,10.2 ,971 
2014/12/11 7:00,3.7 ,32 ,-0.9 ,46 ,182 ,135 ,10.7 ,971 
2014/12/11 8:00,2.1 ,28 ,-0.5 ,55 ,242 ,183 ,13.6 ,971 
2014/12/11 9:00,1.9 ,39 ,0.5 ,38 ,323 ,241 ,17.5 ,972 
2014/12/11 10:00,2.2 ,246 ,1.8 ,39 ,467 ,328 ,23.0 ,972 
2014/12/11 11:00,1.7 ,272 ,3.0 ,34 ,619 ,407 ,27.4 ,973 
2014/12/11 12:00,3.1 ,245 ,1.8 ,47 ,616 ,420 ,29.4 ,973 
2014/12/11 13:00,3.4 ,253 ,1.7 ,46 ,527 ,389 ,28.4 ,973 
2014/12/11 14:00,2.9 ,246 ,2.7 ,40 ,460 ,354 ,26.1 ,974 
2014/12/11 15:00,2.5 ,278 ,2.5 ,43 ,695 ,497 ,33.0 ,974 
2014/12/11 16:00,3.4 ,34 ,3.3 ,46 ,518 ,387 ,26.5 ,974 
2014/12/11 17:00,4.0 ,36 ,2.7 ,45 ,392 ,300 ,20.5 ,974 
2014/12/11 18:00,4.6 ,53 ,3.8 ,35 ,256 ,201 ,14.2 ,974 
2014/12/11 19:00,4.4 ,52 ,2.6 ,39 ,149 ,125 ,8.8 ,975 
2014/12/11 20:00,2.2 ,41 ,2.4 ,37 ,96 ,81 ,5.8 ,975 
2014/12/11 21:00,1.6 ,45 ,1.6 ,47 ,49 ,43 ,3.2 ,975 
2014/12/11 22:00,1.1 ,25 ,1.7 ,44 ,23 ,21 ,1.5 ,976 
2014/12/11 23:00,2.3 ,86 ,0.0 ,63 ,9 ,8 ,0.6 ,976 
2014/12/12 0:00,3.3 ,236 ,-0.3 ,67 ,4 ,4 ,0.4 ,977 
2014/12/12 1:00,3.2 ,50 ,0.3 ,51 ,4 ,3 ,0.4 ,977 
2014/12/12 2:00,2.7 ,55 ,0.7 ,46 ,13 ,10 ,0.7 ,977 
2014/12/12 3:00,3.6 ,62 ,0.8 ,41 ,19 ,17 ,1.0 ,978 
2014/12/12 4:00,3.5 ,63 ,0.5 ,47 ,33 ,28 ,2.0 ,978 
2014/12/12 5:00,2.8 ,41 ,-0.5 ,71 ,53 ,45 ,3.2 ,978 
2014/12/12 6:00,2.5 ,287 ,-0.9 ,74 ,67 ,57 ,4.1 ,979 
2014/12/12 7:00,2.8 ,225 ,0.1 ,54 ,114 ,98 ,7.3 ,979 
2014/12/12 8:00,3.4 ,53 ,0.8 ,46 ,180 ,154 ,10.8 ,979 
2014/12/12 9:00,4.2 ,51 ,1.2 ,44 ,288 ,231 ,15.5 ,979 
2014/12/12 10:00,3.2 ,44 ,1.5 ,57 ,344 ,273 ,18.7 ,980 
2014/12/12 11:00,3.6 ,335 ,0.9 ,52 ,263 ,230 ,16.3 ,980 
2014/12/12 12:00,4.1 ,41 ,0.3 ,69 ,215 ,198 ,14.1 ,981 
2014/12/12 13:00,3.3 ,251 ,1.3 ,50 ,158 ,156 ,11.5 ,981 
2014/12/12 14:00,3.1 ,314 ,-0.1 ,80 ,149 ,149 ,10.9 ,982 
2014/12/12 15:00,4.6 ,244 ,-0.2 ,80 ,223 ,202 ,14.2 ,982 
2014/12/12 16:00,4.1 ,246 ,-0.1 ,76 ,267 ,224 ,15.2 ,983 
2014/12/12 17:00,3.1 ,235 ,0.0 ,76 ,273 ,217 ,14.6 ,983 
2014/12/12 18:00,2.4 ,245 ,0.3 ,70 ,219 ,176 ,11.8 ,983 
2014/12/12 19:00,3.4 ,240 ,0.1 ,74 ,105 ,91 ,6.6 ,984 
2014/12/12 20:00,3.6 ,245 ,-0.3 ,75 ,72 ,60 ,4.7 ,984 
2014/12/12 21:00,3.4 ,242 ,-0.5 ,80 ,60 ,47 ,3.3 ,984 
2014/12/12 22:00,2.4 ,235 ,-0.5 ,74 ,48 ,35 ,2.2 ,985 
2014/12/12 23:00,3.1 ,237 ,-0.9 ,84 ,25 ,19 ,1.4 ,985 
2014/12/13 0:00,2.6 ,244 ,-0.6 ,81 ,20 ,14 ,1.1 ,985 
2014/12/13 1:00,0.9 ,271 ,-1.3 ,85 ,28 ,18 ,1.2 ,985 
2014/12/13 2:00,1.1 ,54 ,-0.2 ,62 ,51 ,31 ,1.4 ,985 
2014/12/13 3:00,1.6 ,45 ,-0.3 ,64 ,30 ,23 ,1.8 ,986 
2014/12/13 4:00,1.8 ,282 ,-0.4 ,64 ,50 ,39 ,2.9 ,986 
2014/12/13 5:00,2.4 ,240 ,-1.2 ,78 ,80 ,61 ,4.8 ,986 
2014/12/13 6:00,2.5 ,243 ,-0.7 ,72 ,121 ,88 ,7.8 ,986 
2014/12/13 7:00,2.5 ,230 ,-0.6 ,73 ,207 ,152 ,11.2 ,986 
2014/12/13 8:00,3.9 ,248 ,-0.2 ,72 ,273 ,203 ,15.0 ,986 
2014/12/13 9:00,3.0 ,240 ,-0.2 ,70 ,266 ,210 ,15.1 ,986 
2014/12/13 10:00,1.5 ,243 ,0.8 ,61 ,247 ,213 ,14.7 ,987 
2014/12/13 11:00,1.2 ,294 ,0.4 ,61 ,292 ,240 ,16.4 ,987 
2014/12/13 12:00,0.7 ,205 ,0.9 ,63 ,311 ,250 ,17.7 ,987 
2014/12/13 13:00,1.8 ,275 ,0.3 ,73 ,258 ,221 ,16.3 ,987 
2014/12/13 14:00,2.7 ,231 ,0.3 ,68 ,267 ,230 ,16.2 ,987 
2014/12/13 15:00,2.8 ,249 ,0.3 ,75 ,212 ,184 ,13.0 ,988 
2014/12/13 16:00,2.8 ,230 ,-0.1 ,87 ,253 ,208 ,14.6 ,988 
2014/12/13 17:00,2.5 ,245 ,0.3 ,89 ,294 ,232 ,15.8 ,987 
2014/12/13 18:00,1.3 ,140 ,1.0 ,80 ,279 ,216 ,14.7 ,987 
2014/12/13 19:00,1.6 ,182 ,0.8 ,70 ,233 ,185 ,13.3 ,987 
2014/12/13 20:00,3.1 ,232 ,-0.5 ,88 ,150 ,124 ,9.2 ,987 
2014/12/13 21:00,3.2 ,229 ,0.1 ,82 ,93 ,114 ,6.7 ,987 
2014/12/13 22:00,3.0 ,226 ,0.4 ,69 ,74 ,76 ,3.9 ,986 
2014/12/13 23:00,2.8 ,109 ,0.3 ,40 ,16 ,18 ,2.2 ,986 
2014/12/14 0:00,3.7 ,67 ,-0.5 ,37 ,11 ,14 ,1.5 ,986 
2014/12/14 1:00,1.9 ,26 ,-1.3 ,48 ,10 ,12 ,1.3 ,985 
2014/12/14 2:00,1.3 ,38 ,-1.7 ,44 ,13 ,15 ,1.7 ,984 
2014/12/14 3:00,2.6 ,44 ,-0.4 ,31 ,18 ,20 ,2.7 ,983 
2014/12/14 4:00,3.4 ,72 ,-0.6 ,34 ,23 ,27 ,4.3 ,982 
2014/12/14 5:00,4.1 ,61 ,-0.4 ,32 ,34 ,36 ,6.5 ,982 
2014/12/14 6:00,3.9 ,68 ,1.5 ,28 ,339 ,152 ,11.0 ,982 
2014/12/14 7:00,4.0 ,61 ,1.9 ,26 ,462 ,213 ,14.9 ,981 
2014/12/14 8:00,4.1 ,50 ,2.3 ,30 ,588 ,279 ,18.9 ,980 
2014/12/14 9:00,3.3 ,33 ,1.1 ,45 ,674 ,336 ,22.2 ,979 
2014/12/14 10:00,3.1 ,31 ,4.2 ,31 ,743 ,402 ,25.7 ,978 
2014/12/14 11:00,3.0 ,50 ,3.7 ,32 ,805 ,462 ,29.0 ,978 
2014/12/14 12:00,1.5 ,330 ,5.3 ,30 ,894 ,529 ,34.0 ,977 
2014/12/14 13:00,3.0 ,42 ,4.1 ,42 ,892 ,550 ,40.1 ,977 
2014/12/14 14:00,2.5 ,25 ,6.5 ,33 ,847 ,552 ,38.9 ,976 
2014/12/14 15:00,3.4 ,26 ,5.4 ,30 ,779 ,529 ,35.2 ,976 
2014/12/14 16:00,1.8 ,342 ,4.8 ,37 ,668 ,478 ,30.8 ,976 
2014/12/14 17:00,1.4 ,21 ,6.6 ,34 ,552 ,416 ,26.2 ,977 
2014/12/14 18:00,4.5 ,49 ,4.2 ,46 ,424 ,331 ,20.6 ,977 
2014/12/14 19:00,5.3 ,49 ,3.2 ,51 ,228 ,231 ,15.9 ,978 
2014/12/14 20:00,3.1 ,38 ,3.9 ,50 ,263 ,228 ,11.0 ,978 
2014/12/14 21:00,3.8 ,59 ,3.4 ,48 ,120 ,114 ,6.1 ,979 
2014/12/14 22:00,3.8 ,57 ,2.4 ,42 ,42 ,37 ,3.4 ,980 
2014/12/14 23:00,4.3 ,63 ,2.1 ,46 ,36 ,26 ,2.1 ,981 
2014/12/15 0:00,4.2 ,66 ,2.0 ,41 ,30 ,19 ,1.3 ,981 
2014/12/15 1:00,4.6 ,71 ,2.0 ,40 ,22 ,15 ,1.0 ,982 
2014/12/15 2:00,6.1 ,70 ,0.3 ,36 ,23 ,16 ,1.2 ,982 
2014/12/15 3:00,6.3 ,53 ,0.5 ,31 ,40 ,28 ,2.0 ,983 
2014/12/15 4:00,6.4 ,59 ,0.9 ,33 ,88 ,59 ,4.0 ,983 
2014/12/15 5:00,5.9 ,68 ,1.0 ,29 ,135 ,89 ,6.8 ,983 
2014/12/15 6:00,6.5 ,76 ,0.6 ,31 ,267 ,149 ,10.5 ,983 
2014/12/15 7:00,6.1 ,78 ,2.0 ,27 ,362 ,197 ,14.1 ,983 
2014/12/15 8:00,6.0 ,65 ,1.8 ,28 ,534 ,294 ,19.4 ,984 
2014/12/15 9:00,6.1 ,67 ,2.1 ,29 ,579 ,337 ,22.5 ,984 
2014/12/15 10:00,4.8 ,59 ,2.7 ,31 ,658 ,385 ,25.5 ,984 
2014/12/15 11:00,2.8 ,33 ,1.8 ,39 ,747 ,461 ,29.6 ,985 
2014/12/15 12:00,2.2 ,310 ,2.6 ,36 ,816 ,527 ,34.1 ,985 
2014/12/15 13:00,2.5 ,323 ,2.5 ,32 ,825 ,538 ,37.7 ,985 
2014/12/15 14:00,1.6 ,332 ,2.0 ,38 ,631 ,445 ,32.1 ,985 
2014/12/15 15:00,3.2 ,232 ,2.5 ,38 ,706 ,501 ,33.2 ,985 
2014/12/15 16:00,4.1 ,228 ,2.6 ,32 ,522 ,389 ,26.8 ,985 
2014/12/15 17:00,2.4 ,304 ,2.5 ,41 ,379 ,296 ,20.9 ,985 
2014/12/15 18:00,1.4 ,344 ,2.3 ,42 ,297 ,237 ,16.5 ,985 
2014/12/15 19:00,1.0 ,353 ,2.5 ,40 ,208 ,169 ,11.6 ,985 
2014/12/15 20:00,1.0 ,339 ,2.0 ,42 ,129 ,105 ,7.4 ,986 
2014/12/15 21:00,1.8 ,242 ,2.0 ,39 ,95 ,75 ,5.0 ,986 
2014/12/15 22:00,1.5 ,275 ,0.8 ,63 ,58 ,44 ,3.0 ,986 
2014/12/15 23:00,0.5 ,326 ,0.8 ,57 ,32 ,23 ,1.8 ,986 
2014/12/16 0:00,0.8 ,57 ,0.4 ,64 ,18 ,13 ,1.1 ,987 
2014/12/16 1:00,3.4 ,65 ,1.5 ,44 ,15 ,10 ,0.9 ,987 
2014/12/16 2:00,5.2 ,68 ,0.4 ,45 ,22 ,16 ,1.3 ,988 
2014/12/16 3:00,6.4 ,74 ,0.8 ,39 ,35 ,25 ,2.0 ,988 
2014/12/16 4:00,6.7 ,73 ,1.0 ,33 ,61 ,44 ,3.5 ,988 
2014/12/16 5:00,6.8 ,77 ,0.8 ,30 ,97 ,71 ,5.7 ,988 
2014/12/16 6:00,6.7 ,71 ,1.0 ,28 ,257 ,156 ,10.1 ,988 
2014/12/16 7:00,6.8 ,71 ,1.6 ,29 ,383 ,215 ,14.0 ,988 
2014/12/16 8:00,7.2 ,65 ,1.8 ,28 ,530 ,282 ,18.6 ,988 
2014/12/16 9:00,7.1 ,69 ,2.0 ,30 ,654 ,349 ,22.5 ,989 
2014/12/16 10:00,6.6 ,67 ,1.8 ,30 ,781 ,417 ,26.0 ,989 
2014/12/16 11:00,5.1 ,68 ,2.8 ,29 ,859 ,473 ,28.6 ,989 
2014/12/16 12:00,3.0 ,31 ,2.0 ,37 ,902 ,523 ,33.4 ,988 
2014/12/16 13:00,4.3 ,254 ,1.5 ,45 ,901 ,549 ,39.7 ,988 
2014/12/16 14:00,4.8 ,231 ,1.1 ,39 ,875 ,553 ,39.2 ,988 
2014/12/16 15:00,3.1 ,254 ,1.9 ,37 ,805 ,535 ,35.6 ,988 
2014/12/16 16:00,3.4 ,246 ,1.5 ,39 ,715 ,496 ,31.9 ,987 
2014/12/16 17:00,3.6 ,228 ,1.1 ,48 ,604 ,438 ,27.3 ,987 
2014/12/16 18:00,4.0 ,236 ,1.6 ,41 ,486 ,368 ,22.0 ,986 
2014/12/16 19:00,3.9 ,249 ,1.3 ,45 ,204 ,222 ,16.0 ,986 
2014/12/16 20:00,2.8 ,26 ,1.9 ,42 ,237 ,213 ,10.6 ,986 
2014/12/16 21:00,3.3 ,49 ,2.5 ,31 ,120 ,144 ,6.8 ,986 
2014/12/16 22:00,5.0 ,58 ,-0.4 ,52 ,79 ,80 ,3.8 ,986 
2014/12/16 23:00,5.2 ,51 ,0.6 ,33 ,16 ,19 ,2.2 ,986 
2014/12/17 0:00,6.3 ,59 ,-0.5 ,35 ,12 ,14 ,1.5 ,986 
2014/12/17 1:00,6.9 ,62 ,-0.4 ,32 ,11 ,12 ,1.3 ,986 
2014/12/17 2:00,6.5 ,69 ,-0.7 ,31 ,13 ,15 ,1.7 ,985 
2014/12/17 3:00,7.4 ,79 ,-1.2 ,32 ,18 ,20 ,2.7 ,985 
2014/12/17 4:00,8.4 ,79 ,-1.2 ,30 ,23 ,27 ,4.3 ,985 
2014/12/17 5:00,8.6 ,71 ,-0.8 ,29 ,30 ,34 ,6.4 ,985 
2014/12/17 6:00,8.0 ,68 ,0.6 ,27 ,334 ,147 ,10.7 ,985 
2014/12/17 7:00,7.8 ,72 ,1.4 ,25 ,463 ,208 ,14.6 ,985 
2014/12/17 8:00,7.2 ,70 ,1.4 ,26 ,588 ,273 ,18.6 ,985 
2014/12/17 9:00,5.8 ,33 ,-0.5 ,47 ,708 ,345 ,22.5 ,985 
2014/12/17 10:00,4.7 ,52 ,2.8 ,27 ,804 ,409 ,25.7 ,984 
2014/12/17 11:00,3.7 ,13 ,0.8 ,39 ,871 ,469 ,28.5 ,984 
2014/12/17 12:00,3.8 ,34 ,1.8 ,35 ,911 ,516 ,33.3 ,984 
2014/12/17 13:00,4.0 ,42 ,3.4 ,29 ,912 ,543 ,39.7 ,983 
2014/12/17 14:00,4.2 ,73 ,3.3 ,25 ,879 ,548 ,39.1 ,982 
2014/12/17 15:00,3.5 ,50 ,3.7 ,28 ,814 ,529 ,35.5 ,981 
2014/12/17 16:00,2.7 ,42 ,3.1 ,36 ,723 ,491 ,31.7 ,981 
2014/12/17 17:00,3.1 ,37 ,2.5 ,28 ,614 ,437 ,27.3 ,980 
2014/12/17 18:00,3.7 ,33 ,1.9 ,38 ,498 ,369 ,22.1 ,980 
2014/12/17 19:00,4.4 ,43 ,2.8 ,36 ,209 ,222 ,16.1 ,979 
2014/12/17 20:00,3.8 ,39 ,1.5 ,36 ,239 ,214 ,10.7 ,979 
2014/12/17 21:00,2.8 ,32 ,0.8 ,49 ,122 ,146 ,6.9 ,979 
2014/12/17 22:00,1.0 ,26 ,0.6 ,45 ,82 ,82 ,3.8 ,980 
2014/12/17 23:00,4.4 ,52 ,0.8 ,34 ,16 ,19 ,2.2 ,980 
2014/12/18 0:00,6.8 ,71 ,0.1 ,33 ,12 ,14 ,1.5 ,980 
2014/12/18 1:00,6.3 ,62 ,-0.5 ,35 ,11 ,13 ,1.4 ,980 
2014/12/18 2:00,6.9 ,67 ,-1.3 ,38 ,13 ,15 ,1.7 ,980 
2014/12/18 3:00,6.8 ,67 ,-1.7 ,37 ,18 ,20 ,2.7 ,981 
2014/12/18 4:00,7.0 ,70 ,-1.6 ,36 ,24 ,27 ,4.3 ,981 
2014/12/18 5:00,6.9 ,73 ,-0.9 ,35 ,31 ,34 ,6.3 ,981 
2014/12/18 6:00,6.9 ,75 ,0.3 ,36 ,358 ,164 ,10.8 ,981 
2014/12/18 7:00,5.0 ,38 ,0.2 ,37 ,328 ,173 ,13.0 ,981 
2014/12/18 8:00,6.5 ,50 ,0.2 ,47 ,381 ,228 ,16.7 ,981 
2014/12/18 9:00,4.9 ,39 ,2.2 ,31 ,712 ,393 ,23.8 ,981 
2014/12/18 10:00,6.5 ,51 ,2.5 ,29 ,426 ,295 ,22.2 ,981 
2014/12/18 11:00,5.6 ,53 ,2.1 ,35 ,441 ,331 ,24.8 ,981 
2014/12/18 12:00,4.3 ,37 ,3.2 ,33 ,551 ,377 ,28.3 ,981 
2014/12/18 13:00,3.7 ,19 ,2.1 ,46 ,893 ,557 ,38.1 ,981 
2014/12/18 14:00,2.2 ,304 ,2.1 ,47 ,519 ,378 ,28.1 ,981 
2014/12/18 15:00,1.9 ,276 ,2.3 ,41 ,588 ,447 ,29.0 ,981 
2014/12/18 16:00,3.4 ,225 ,1.8 ,41 ,409 ,320 ,22.1 ,981 
2014/12/18 17:00,3.2 ,220 ,2.5 ,42 ,465 ,355 ,22.2 ,981 
2014/12/18 18:00,3.5 ,239 ,2.7 ,42 ,515 ,390 ,22.3 ,981 